Find Starlink 6144

NORAD ID: 56894 Int'l Des: 2023-083 Owner: SPXS Country: US Constellation: starlink operational
LEOCIRCULAR

Live Position

Loading 3D Globe...

About Starlink 6144

Description loading...

Upcoming Passes

Passes for default location (London). Set your location on the main map for personalized predictions.

Altitude History

Loading altitude history...

Two-Line Element Set

1 56894U 23083U 26126.38340921 .00001095 00000-0 49335-4 0 9998
2 56894 43.0059 122.8066 0002293 294.2545 65.8067 15.27580363160534
Epoch: May 6, 2026 • Age: 12 hours

Current Status

Altitude 484.4 km
Velocity 7.62 km/s
Sub-Earth Point -6.64°S, 127.23°E
Launch Date Jun 12, 2023
Age 2.8 years
Type internet

Technical Details

Classification Payload
Mass 305.00 kg
Dry Mass 290.00 kg
Total Mass 305.00 kg
Length 0.20 m
Diameter 2.80 m
Span 9.00 m
Shape Box + pan
Manufacturer SPXS
Bus Type Starlink
Phase Status In Orbit
Owner/State SPXS/US

Most Searched